STARLINK-2156, 47742

Orbit data source: Space-Track

STARLINK-2156, 47742 is a payload satellite owned by SpaceX/Seattle (US) in LEO that was launched on Thu, 04 Mar 2021 UTC via an FALCON 9 launch vehicle from the Air Force Eastern Test Range (AFETR). Payload-class satellites include a variety of spacecraft equipped with specific instruments for various scientific and technological missions. These include communications satellites like Starlink; space stations such as the ISS; scientific satellites like the Hubble; Earth observation satellites from companies like Planet Labs, Umbra, and HawkEye 360; GPS; miniature CubeSats for education and research; and military/defense satellites.

Loading next visibility...
Identifier
47742, 2021-017W
Orbit
LEO
Country
Flag of USUS
Related business
Manufacturer
SpaceX/Seattle
Mission
Operational Commercial Communications
Bus & Motor
STARLINK, Unknown motor
Mass
260 kg wet, ~248 kg dry
Launch date (UTC)
2021-03-04 (5 years ago)
Launch vehicle
FALCON 9
Launch site
Air Force Eastern Test Range (AFETR)
Object type
Payload
Rocket body
Debris
Shape & HBR
Box + 1 Pan, 10.1 m
Radar Cross Section
13.562 m², Large (>1 m²)

Expand to show TLE details & history
Last TLE update: 13 hours ago

TLE from 13 hours ago
0 STARLINK-2156
1 47742U 21017W   25346.99737238 -.00006506  00000-0 -41841-3 0  9993
2 47742  53.0541 230.7958 0001359  90.3348 269.7796 15.06386224264851
Epoch: 2025-12-12T23:56Z
TLE epoch observation values (Epoch: 2025-12-12T23:56:12.973Z)
Latitude
-0.00009°
Longitude
149.81071°
Altitude
548.137 km
Speed
7.589 km/s
True Right ascension
15h 23m 10s
True Declination
0° 00' 00"
Sunlit
Object was in daylight at epoch
Visualization orbit readout
Latitude
Unknown
Longitude
Unknown
Altitude
Unknown
Speed
Unknown
Apparent Right ascension
Unknown
Apparent Declination
Unknown
Sunlit
N/A
Visualization observer readout
Local Sidereal Time
11:02:12
Azimuth
Unknown
Elevation
Unknown
Doppler factor
Unknown
Orbital elements
Apogee altitude
548.466 km
Perigee altitude
546.583 km
Semi-major axis
6,925.662 km
Eccentricity
0.00014
Inclination
53.0541°
RAAN
230.7958°
Arg. of periapsis
90.3348°
True anomaly
269.76403°
Mean anomaly
269.7796°
Eccentric anomaly
269.77181°
Mean motion
3.76575 °/min
Orbital period
95.6 mins
BSTAR
-0.00041841
Loading maneuver chart data...
Computing Atmospheric mass density...
Loading historical data...
Loading historical data...
Loading historical data...
Loading historical data...
Loading historical data...
Loading historical data...
Loading historical data...

Documentation

Showing up to 5 results
|